West Bend, WI

5:33 AM CDT on July 21, 2017 (GMT -0500)
West Bend Municipal

Weather History for KETB - February, 2013

Change the Weather History Date:

Saturday, February 16, 2013

  Actual Average Record
Temperature  
Mean Temperature 11 °F -  
Max Temperature 17 °F 29 °F 52 °F (1981)
Min Temperature 5 °F 13 °F -17 °F (1936)
Degree Days  
Heating Degree Days 54    
Moisture  
Dew Point 0 °F    
Average Humidity 61    
Maximum Humidity 79    
Minimum Humidity 42    
Precipitation  
Precipitation 0.00 in - - ()
Sea Level Pressure  
Sea Level Pressure 30.12 in    
Wind  
Wind Speed 7 mph (WNW)    
Max Wind Speed 14 mph    
Max Gust Speed 20 mph    
Visibility 10 miles    
Events      
Averages and records for this station are not official NWS values.
T = Trace of Precipitation, MM = Missing Value Source: NWS Daily Summary

Daily Weather History Graph

Daily Weather History Graph

Search for Another Location

Airport or City:

Trip Planner

Search our weather history database for the weather conditions in past years. The results will help you decide how hot, cold, wet, or windy it might be!

Date:

Astronomy

Feb. 16, 2013 Rise Set
Actual Time 6:48 AM CST 5:24 PM CST
Civil Twilight 6:19 AM CST 5:54 PM CST
Nautical Twilight 5:46 AM CST 6:27 PM CST
Astronomical Twilight 5:13 AM CST 7:00 PM CST
Moon 9:48 AM CST (2/16) No Moon Set
Length of Visible Light 11h 34m
Length of Day
10h 36m
Waxing Crescent, 39% of the Moon is Illuminated
Feb 16
Waxing Crescent
Feb 17
First Quarter
Feb 25
Full
Mar 4
Last Quarter
Mar 11
New

Hourly Weather History & Observations

Time (CST) Temp. Windchill Dew Point Humidity Pressure Visibility Wind Dir Wind Speed Gust Speed Precip Events Conditions
12:35 AM 14.0 °F 2.9 °F 3.2 °F 62% 30.14 in 10.0 mi WNW 8.1 mph - N/A   Overcast
12:55 AM 14.0 °F 2.0 °F 3.2 °F 62% 30.14 in 10.0 mi NW 9.2 mph - N/A   Overcast
1:15 AM 12.2 °F 1.7 °F 3.2 °F 67% 30.14 in 10.0 mi WNW 6.9 mph - N/A   Overcast
1:35 AM 12.2 °F 2.9 °F 3.2 °F 67% 30.14 in 10.0 mi WNW 5.8 mph - N/A   Overcast
1:55 AM 12.2 °F 1.7 °F 3.2 °F 67% 30.13 in 10.0 mi WNW 6.9 mph - N/A   Overcast
2:15 AM 12.2 °F 1.7 °F 3.2 °F 67% 30.12 in 10.0 mi WNW 6.9 mph - N/A   Overcast
2:35 AM 12.2 °F 1.7 °F 5.0 °F 73% 30.12 in 10.0 mi WNW 6.9 mph - N/A   Overcast
2:55 AM 12.2 °F 2.9 °F 5.0 °F 73% 30.11 in 10.0 mi WNW 5.8 mph - N/A   Overcast
3:15 AM 12.2 °F 1.7 °F 3.2 °F 67% 30.11 in 10.0 mi WNW 6.9 mph - N/A   Overcast
3:35 AM 10.4 °F 0.8 °F 3.2 °F 73% 30.11 in 10.0 mi WNW 5.8 mph - N/A   Mostly Cloudy
3:55 AM 10.4 °F 0.8 °F 3.2 °F 73% 30.10 in 10.0 mi West 5.8 mph - N/A   Scattered Clouds
4:15 AM 10.4 °F 0.8 °F 3.2 °F 73% 30.10 in 10.0 mi West 5.8 mph - N/A   Clear
4:35 AM 10.4 °F 0.8 °F 3.2 °F 73% 30.11 in 10.0 mi WNW 5.8 mph - N/A   Clear
4:55 AM 8.6 °F -2.6 °F 3.2 °F 79% 30.11 in 10.0 mi West 6.9 mph - N/A   Clear
5:15 AM 8.6 °F -2.6 °F 3.2 °F 79% 30.11 in 10.0 mi WNW 6.9 mph - N/A   Clear
5:35 AM 8.6 °F -1.3 °F 1.4 °F 73% 30.11 in 10.0 mi West 5.8 mph - N/A   Scattered Clouds
5:55 AM 6.8 °F -3.5 °F 1.4 °F 79% 30.10 in 10.0 mi West 5.8 mph - N/A   Scattered Clouds
6:15 AM 6.8 °F -2.0 °F 1.4 °F 79% 30.10 in 10.0 mi WNW 4.6 mph - N/A   Mostly Cloudy
6:35 AM 6.8 °F -2.0 °F 1.4 °F 79% 30.11 in 10.0 mi West 4.6 mph - N/A   Mostly Cloudy
6:55 AM 5.0 °F -4.1 °F -0.4 °F 78% 30.11 in 10.0 mi WNW 4.6 mph - N/A   Overcast
7:15 AM 5.0 °F -2.1 °F -0.4 °F 78% 30.11 in 10.0 mi WNW 3.5 mph - N/A   Mostly Cloudy
7:35 AM 6.8 °F -3.5 °F -0.4 °F 72% 30.12 in 10.0 mi WNW 5.8 mph - N/A   Scattered Clouds
7:55 AM 8.6 °F -3.7 °F -0.4 °F 67% 30.12 in 10.0 mi WNW 8.1 mph - N/A   Clear
8:15 AM 8.6 °F -3.7 °F -0.4 °F 67% 30.12 in 10.0 mi WNW 8.1 mph - N/A   Scattered Clouds
8:35 AM 10.4 °F -3.3 °F 1.4 °F 67% 30.12 in 10.0 mi NW 10.4 mph - N/A   Scattered Clouds
8:55 AM 10.4 °F -1.5 °F 1.4 °F 67% 30.12 in 10.0 mi NW 8.1 mph - N/A   Clear
9:15 AM 12.2 °F -1.8 °F -0.4 °F 57% 30.11 in 10.0 mi WNW 11.5 mph - N/A   Clear
9:35 AM 12.2 °F -1.0 °F -0.4 °F 57% 30.11 in 10.0 mi NW 10.4 mph 16.1 mph N/A   Clear
12:15 PM 15.8 °F 2.1 °F 3.2 °F 58% 30.11 in 10.0 mi West 12.7 mph - N/A   Clear
12:35 PM 15.8 °F 2.7 °F 3.2 °F 58% 30.10 in 10.0 mi NW 11.5 mph - N/A   Clear
12:55 PM 15.8 °F 2.7 °F 3.2 °F 58% 30.10 in 10.0 mi WNW 11.5 mph - N/A   Scattered Clouds
1:15 PM 17.6 °F 5.7 °F 3.2 °F 53% 30.10 in 10.0 mi NW 10.4 mph - N/A   Clear
1:35 PM 15.8 °F 2.7 °F 1.4 °F 53% 30.10 in 10.0 mi NW 11.5 mph - N/A   Clear
1:55 PM 17.6 °F 5.0 °F 1.4 °F 49% 30.10 in 10.0 mi NW 11.5 mph - N/A   Scattered Clouds
2:15 PM 17.6 °F 5.0 °F 1.4 °F 49% 30.10 in 10.0 mi WNW 11.5 mph - N/A   Scattered Clouds
2:35 PM 17.6 °F 3.7 °F -0.4 °F 45% 30.10 in 10.0 mi NW 13.8 mph 19.6 mph N/A   Clear
2:55 PM 17.6 °F 5.7 °F -2.2 °F 42% 30.10 in 10.0 mi NW 10.4 mph - N/A   Clear
3:15 PM 17.6 °F 4.3 °F -2.2 °F 42% 30.10 in 10.0 mi NW 12.7 mph - N/A   Clear
3:35 PM 17.6 °F 5.0 °F -2.2 °F 42% 30.10 in 10.0 mi NW 11.5 mph 16.1 mph N/A   Clear
3:55 PM 17.6 °F 6.4 °F -0.4 °F 45% 30.11 in 10.0 mi NW 9.2 mph - N/A   Clear
4:15 PM 15.8 °F 4.2 °F -0.4 °F 49% 30.11 in 10.0 mi NW 9.2 mph - N/A   Clear
4:35 PM 15.8 °F 6.1 °F -0.4 °F 49% 30.11 in 10.0 mi NW 6.9 mph - N/A   Clear
4:55 PM 15.8 °F 6.1 °F -2.2 °F 45% 30.11 in 10.0 mi NW 6.9 mph - N/A   Clear
5:15 PM 14.0 °F 5.1 °F -0.4 °F 53% 30.12 in 10.0 mi NW 5.8 mph - N/A   Clear
5:35 PM 14.0 °F 5.1 °F -0.4 °F 53% 30.13 in 10.0 mi WNW 5.8 mph - N/A   Clear
5:55 PM 14.0 °F 6.5 °F -0.4 °F 53% 30.13 in 10.0 mi WNW 4.6 mph - N/A   Clear
6:15 PM 14.0 °F 5.1 °F -0.4 °F 53% 30.14 in 10.0 mi WNW 5.8 mph - N/A   Clear
6:35 PM 12.2 °F 6.1 °F -0.4 °F 57% 30.14 in 10.0 mi WNW 3.5 mph - N/A   Clear
6:55 PM 12.2 °F 6.1 °F -0.4 °F 57% 30.14 in 10.0 mi WNW 3.5 mph - N/A   Clear
7:15 PM 10.4 °F 4.0 °F -0.4 °F 62% 30.14 in 10.0 mi WNW 3.5 mph - N/A   Clear
7:35 PM 10.4 °F 2.2 °F -0.4 °F 62% 30.14 in 10.0 mi WNW 4.6 mph - N/A   Clear
7:55 PM 12.2 °F 2.9 °F -0.4 °F 57% 30.14 in 10.0 mi WNW 5.8 mph - N/A   Clear
8:15 PM 12.2 °F 2.9 °F -0.4 °F 57% 30.14 in 10.0 mi West 5.8 mph - N/A   Clear
8:35 PM 10.4 °F 0.8 °F -0.4 °F 62% 30.14 in 10.0 mi WNW 5.8 mph - N/A   Clear
8:55 PM 10.4 °F 0.8 °F -2.2 °F 57% 30.15 in 10.0 mi WNW 5.8 mph - N/A   Clear
9:15 PM 10.4 °F 0.8 °F -2.2 °F 57% 30.15 in 10.0 mi West 5.8 mph - N/A   Clear
9:35 PM 10.4 °F 0.8 °F -4.0 °F 52% 30.15 in 10.0 mi WNW 5.8 mph - N/A   Clear
9:55 PM 10.4 °F 0.8 °F -4.0 °F 52% 30.15 in 10.0 mi West 5.8 mph - N/A   Clear
10:15 PM 10.4 °F 2.2 °F -4.0 °F 52% 30.15 in 10.0 mi WNW 4.6 mph - N/A   Clear
10:35 PM 8.6 °F 2.0 °F -4.0 °F 57% 30.15 in 10.0 mi NW 3.5 mph - N/A   Clear
10:55 PM 8.6 °F 2.0 °F -4.0 °F 57% 30.15 in 10.0 mi WNW 3.5 mph - N/A   Clear
11:15 PM 8.6 °F - -4.0 °F 57% 30.15 in 10.0 mi Calm Calm - N/A   Clear
11:35 PM 8.6 °F 2.0 °F -4.0 °F 57% 30.15 in 10.0 mi West 3.5 mph - N/A   Clear
11:55 PM 8.6 °F 2.0 °F -4.0 °F 57% 30.15 in 10.0 mi WNW 3.5 mph - N/A   Clear